Date,TemperatureHighF,TemperatureAvgF,TemperatureLowF,DewpointHighF,DewpointAvgF,DewpointLowF,HumidityHigh,HumidityAvg,HumidityLow,PressureMaxIn,PressureMinIn,WindSpeedMaxMPH,WindSpeedAvgMPH,GustSpeedMaxMPH,PrecipitationSumIn
2013-1-1,58.7,53.4,49.8,46.9,45.5,44.1,83,75,64,30.17,30.09,7,3,15,0.00
2013-1-2,59.7,52.4,45.8,49.9,46.1,41.5,86,80,68,30.34,30.17,5,2,10,0.00
2013-1-3,62.6,53.4,47.1,49.7,45.4,41.9,85,75,58,30.43,30.34,5,3,11,0.00
2013-1-4,61.3,54.0,48.4,44.1,39.0,32.7,76,58,35,30.37,30.09,7,2,12,0.00
2013-1-5,58.6,53.5,49.8,40.4,36.1,31.4,65,52,37,30.09,29.80,9,3,19,0.00
2013-1-6,52.8,48.2,44.2,39.2,36.4,31.4,74,64,55,29.93,29.73,13,6,33,0.00
2013-1-7,55.6,47.1,41.7,32.7,28.3,21.9,62,49,34,30.03,29.87,16,6,32,0.00
2013-1-8,45.3,38.5,34.2,33.9,28.6,20.4,91,69,38,30.23,30.02,13,6,29,0.27
2013-1-9,47.1,41.7,36.9,32.1,26.4,22.2,67,55,44,30.27,30.19,10,4,22,0.00
2013-1-10,52.6,45.6,37.8,38.8,31.6,25.5,71,59,40,30.21,30.05,5,2,10,0.00
2013-1-11,62.7,55.4,47.4,52.0,47.7,37.8,92,76,58,30.05,29.83,6,2,13,0.06
2013-1-12,60.9,53.4,46.8,48.3,44.5,41.5,87,73,55,30.06,29.83,9,3,19,0.00
2013-1-13,60.1,52.1,46.6,44.3,41.8,36.2,79,69,42,30.25,30.06,6,3,11,0.00
2013-1-14,60.1,54.2,49.8,50.0,46.2,43.3,80,74,68,30.30,30.24,7,3,16,0.00
2013-1-15,61.6,56.1,50.2,53.9,49.6,45.2,86,79,69,30.28,30.04,10,4,22,0.05
2013-1-16,60.7,57.1,51.9,53.8,49.7,40.0,93,77,51,30.04,29.68,17,8,35,1.52
2013-1-17,61.4,55.5,48.6,52.5,46.7,41.5,81,73,59,29.80,29.67,11,6,22,0.02
2013-1-18,59.6,54.9,48.1,52.9,46.8,38.9,87,74,57,29.66,29.48,18,8,32,0.22
2013-1-19,56.6,52.0,46.9,43.1,39.9,37.8,78,64,50,29.88,29.56,14,7,25,0.00
2013-1-20,65.3,57.1,50.4,55.6,47.8,41.5,85,72,53,29.97,29.87,7,2,15,0.00
2013-1-21,65.9,59.4,52.9,55.9,51.6,46.6,90,76,51,29.94,29.68,11,5,26,0.00
2013-1-22,63.5,58.3,52.4,53.6,48.5,45.3,85,71,52,29.82,29.68,8,3,17,0.00
2013-1-23,60.8,57.1,54.2,48.3,43.4,39.9,75,61,47,29.98,29.82,15,5,25,0.00
2013-1-24,63.2,56.1,50.1,54.6,49.0,44.0,90,77,67,29.97,29.60,21,6,38,0.56
2013-1-25,59.4,52.7,47.2,50.3,46.2,41.7,90,79,62,29.67,29.51,14,5,36,0.54
2013-1-26,57.6,51.8,48.2,48.8,45.8,43.2,86,80,63,29.67,29.46,7,3,14,0.50
2013-1-27,54.6,49.9,47.8,43.3,41.9,40.0,83,74,59,29.97,29.68,9,5,20,0.05
2013-1-28,56.7,51.4,47.8,44.9,41.7,38.3,81,70,58,30.02,29.92,7,3,15,0.00
2013-1-29,53.4,49.1,46.3,43.1,41.3,39.2,83,74,61,30.12,30.02,8,3,18,0.01
2013-1-30,60.1,52.3,44.6,40.1,33.0,22.2,79,51,24,30.12,29.96,9,4,16,0.00
2013-1-31,61.7,54.2,46.4,46.9,39.3,29.7,71,57,39,30.04,29.85,13,4,26,0.00
2013-2-1,59.5,54.4,48.7,44.2,35.2,28.5,69,49,35,30.08,29.92,17,4,31,0.00
2013-2-2,64.4,56.6,48.4,54.2,47.8,41.9,84,73,54,29.92,29.78,10,3,16,0.00
2013-2-3,65.4,61.2,58.8,55.9,54.6,52.8,88,79,66,29.94,29.80,15,9,32,0.00
2013-2-4,66.1,61.1,57.7,55.9,54.1,50.8,89,78,60,30.00,29.93,5,2,13,0.00
2013-2-5,65.3,59.5,54.9,54.5,50.2,46.4,87,72,53,30.01,29.86,8,4,16,0.00
2013-2-6,62.4,56.5,50.9,52.9,47.6,43.2,81,72,60,29.86,29.69,8,3,13,0.00
2013-2-7,62.3,57.0,51.1,52.8,49.0,44.1,89,75,63,29.73,29.53,18,7,43,1.11
2013-2-8,57.6,53.6,49.2,46.5,42.3,39.1,77,66,55,29.77,29.55,9,4,18,0.00
2013-2-9,60.2,52.7,45.7,43.3,40.8,38.2,81,65,46,29.89,29.77,9,4,18,0.00
2013-2-10,59.0,53.4,48.8,42.0,39.0,36.2,71,58,44,29.90,29.81,8,3,14,0.00
2013-2-11,55.6,50.7,47.1,40.8,36.3,31.9,77,58,43,30.07,29.79,14,6,24,0.00
2013-2-12,59.5,52.8,44.5,48.7,41.4,33.8,74,65,49,30.09,30.01,8,4,17,0.00
2013-2-13,57.4,54.1,48.5,50.3,47.4,44.0,92,79,63,30.01,29.91,15,5,35,1.52
2013-2-14,55.8,50.7,48.2,48.7,45.9,43.4,89,84,68,29.93,29.70,9,4,16,0.95
2013-2-15,54.7,50.0,46.6,46.3,44.1,42.1,87,80,69,30.04,29.70,13,4,23,0.41
2013-2-16,59.6,51.9,47.6,45.8,43.7,41.9,87,74,55,30.08,30.02,7,4,15,0.12
2013-2-17,49.0,47.8,45.6,45.6,42.5,38.8,89,82,74,30.09,29.97,12,5,26,0.99
2013-2-18,56.9,49.1,42.8,41.7,39.5,36.8,85,70,47,30.11,30.06,7,3,15,0.00
2013-2-19,58.0,51.8,47.2,50.9,45.1,39.6,91,78,66,30.07,29.79,9,3,18,0.30
2013-2-20,59.7,53.0,46.5,43.3,38.6,30.6,77,60,34,30.08,29.84,9,4,20,0.03
2013-2-21,57.1,53.0,49.1,50.2,44.3,40.7,86,73,62,30.07,29.74,7,4,16,0.02
2013-2-22,59.0,54.0,50.9,52.5,49.7,47.2,93,86,72,29.75,29.59,11,5,30,5.56
2013-2-23,63.9,55.8,49.3,52.6,48.9,46.8,91,78,58,30.05,29.75,7,2,11,0.00
2013-2-24,67.2,59.9,52.5,55.9,51.1,47.4,91,74,56,30.11,30.04,8,4,17,0.00
2013-2-25,69.6,61.9,56.7,55.5,52.8,49.4,87,73,50,30.10,29.99,11,5,22,0.00
2013-2-26,66.6,60.4,53.9,55.7,48.8,38.3,88,67,36,30.06,29.98,11,4,19,0.00
2013-2-27,59.3,55.0,52.3,44.9,41.4,36.6,72,61,44,30.08,29.96,15,6,26,0.00
2013-2-28,55.7,51.1,48.5,42.3,40.6,38.3,75,67,59,30.23,30.08,11,6,24,0.00
2013-3-1,59.1,51.4,44.0,42.0,38.7,35.1,77,63,45,30.21,30.04,6,2,13,0.00
2013-3-2,59.3,52.6,45.6,46.9,43.2,39.5,80,70,58,30.04,29.90,9,3,21,0.00
2013-3-3,56.7,53.2,49.8,48.1,43.0,37.7,84,69,52,29.98,29.79,18,11,38,0.35
2013-3-4,61.9,53.3,45.8,44.2,40.1,37.1,79,62,40,30.19,29.98,7,2,13,0.00
2013-3-5,59.9,52.3,47.6,42.5,38.4,35.0,73,60,46,30.43,30.19,10,6,22,0.00
2013-3-6,58.8,52.2,45.9,41.0,36.7,32.3,67,56,37,30.42,30.16,10,4,20,0.00
2013-3-7,58.8,55.0,52.8,51.9,47.7,41.3,87,77,64,30.17,29.94,7,2,12,0.19
2013-3-8,63.7,57.1,51.9,53.8,50.8,48.1,87,80,61,29.94,29.87,6,2,11,0.00
2013-3-9,69.3,60.7,53.2,54.8,51.8,49.9,90,74,55,29.88,29.74,10,3,18,0.03
2013-3-10,68.5,61.8,57.1,52.3,50.2,44.8,79,66,45,29.83,29.73,8,3,15,0.00
2013-3-11,70.4,62.3,55.4,57.5,54.0,47.5,85,75,55,29.73,29.59,11,4,21,0.00
2013-3-18,58.0,51.8,46.4,46.7,40.2,36.6,75,65,52,30.20,30.04,7,4,15,0.00
2013-3-20,67.4,61.0,53.1,55.6,51.1,47.8,87,71,53,29.92,29.82,7,3,14,0.00
2013-3-21,68.7,63.7,59.2,56.4,52.4,41.2,84,68,48,29.82,29.55,12,4,25,0.00
2013-3-22,63.2,58.8,54.0,42.5,39.0,35.0,63,49,36,29.70,29.55,21,13,39,0.00
2013-3-23,66.3,57.8,50.1,42.9,26.4,14.7,56,31,16,29.94,29.78,8,4,16,0.00
2013-3-25,68.0,61.7,56.7,56.3,52.4,49.5,86,72,55,29.96,29.62,13,6,26,0.00
2013-3-26,66.2,61.3,57.6,56.3,49.3,46.5,88,66,51,29.65,29.54,14,7,26,0.00
2013-3-27,68.7,61.7,56.4,54.5,48.7,43.8,69,63,48,29.85,29.66,11,4,20,0.00
2013-3-28,68.6,60.5,56.8,53.5,50.9,47.1,82,71,57,30.07,29.85,6,2,11,0.10
2013-3-29,68.1,60.7,54.8,53.9,51.9,50.4,86,74,56,30.07,30.00,5,3,11,0.00
2013-3-30,72.8,65.4,58.3,55.0,52.1,49.2,80,63,45,30.01,29.84,8,3,17,0.00
2013-3-31,68.3,63.9,61.0,58.3,55.3,51.1,85,74,63,29.86,29.74,8,4,16,0.00
2013-4-1,72.2,64.7,58.2,57.3,45.6,36.6,86,53,28,29.89,29.78,14,6,24,0.00
2013-4-2,71.1,65.3,58.6,54.0,47.7,44.7,65,54,41,29.89,29.58,9,3,19,0.00
2013-4-3,69.1,64.3,60.4,57.2,49.4,41.6,85,60,39,29.67,29.47,17,8,30,0.00
2013-4-4,71.1,63.5,57.3,46.6,44.2,39.8,64,51,33,29.94,29.68,17,6,29,0.00
2013-4-5,71.2,63.9,58.2,52.7,47.6,40.3,66,56,33,29.96,29.81,10,4,24,0.00
2013-4-6,71.6,65.9,57.8,56.2,50.9,46.4,73,59,41,29.82,29.72,5,2,10,0.00
2013-4-7,71.8,66.0,62.5,59.5,52.6,46.2,85,62,48,29.71,29.32,16,8,33,0.01
2013-4-8,62.3,60.0,56.5,52.7,49.0,46.9,82,67,59,29.90,29.41,11,5,22,0.09
2013-4-9,68.3,60.9,54.4,50.8,47.6,43.5,81,63,41,30.00,29.90,13,5,25,0.03
2013-4-10,70.6,62.4,54.9,53.9,49.2,42.9,79,63,38,30.01,29.92,8,4,17,0.00
2013-4-11,76.3,64.6,55.5,54.5,47.8,41.3,73,57,29,30.03,29.92,8,3,18,0.00
2013-4-12,72.5,64.9,56.6,52.1,48.1,43.0,70,55,42,30.08,30.00,8,3,14,0.00
2013-4-13,74.5,66.1,58.3,54.1,49.3,46.0,67,55,40,30.11,30.06,8,3,14,0.00
2013-4-14,78.3,67.9,62.0,53.9,49.2,45.1,69,53,33,30.10,30.04,15,6,32,0.00
2013-4-15,65.9,61.5,57.1,46.7,43.5,38.4,64,52,38,30.10,30.01,15,7,31,0.00
2013-4-16,67.6,59.7,54.4,47.0,42.9,37.4,74,55,36,30.09,30.02,15,8,30,0.04
2013-4-17,69.2,62.1,56.8,42.3,34.4,24.9,57,37,20,30.11,30.05,13,7,29,0.00
2013-4-18,65.9,60.7,55.6,38.8,32.2,24.3,52,35,21,30.10,30.02,15,8,31,0.00
2013-4-19,63.7,58.7,54.0,45.0,37.7,33.2,65,46,36,30.03,29.95,14,6,32,0.02
2013-4-20,69.2,60.9,54.9,44.4,40.0,36.5,61,47,34,30.05,29.95,12,6,24,0.00
2013-4-21,74.8,64.5,56.5,51.3,41.3,36.6,65,44,26,30.05,29.95,10,4,23,0.00
2013-4-22,74.6,65.8,57.8,50.3,43.4,38.7,63,45,28,30.08,29.99,7,3,14,0.00
2013-4-23,75.4,66.6,59.6,48.9,46.1,41.9,60,48,37,30.23,30.08,11,4,18,0.00
2013-4-24,81.7,69.6,59.4,53.6,44.8,32.5,66,44,17,30.32,30.23,9,4,20,0.00
2013-4-25,84.8,73.9,64.6,49.2,45.7,42.0,52,38,25,30.30,30.17,9,4,18,0.00
2013-4-26,84.6,74.0,62.4,52.1,44.4,37.1,52,36,21,30.18,30.00,8,3,16,0.00
2013-4-27,81.7,72.8,64.2,48.8,43.9,41.2,46,36,25,30.01,29.92,9,3,16,0.00
2013-4-28,79.8,71.3,63.3,57.4,47.3,39.7,68,44,26,30.06,29.95,8,3,15,0.00
2013-4-29,83.9,73.3,63.5,55.0,45.8,40.1,54,38,25,30.12,30.05,7,2,14,0.00
2013-4-30,89.3,78.7,66.9,51.3,45.8,42.2,50,33,21,30.11,30.03,11,4,22,0.00
2013-5-1,89.6,80.6,71.8,51.7,46.8,40.3,42,31,24,30.07,29.95,11,5,23,0.00
2013-5-2,76.3,76.3,76.3,40.8,40.8,40.8,28,28,28,29.97,29.97,2,2,5,0.00
2013-5-8,78.8,71.1,65.8,61.3,57.1,50.5,74,62,43,29.91,29.82,10,4,21,0.00
2013-5-9,77.0,68.6,64.5,58.0,55.6,53.6,73,64,48,29.91,29.83,15,6,27,0.00
2013-5-10,74.4,68.1,61.8,57.8,54.6,51.0,83,63,48,29.91,29.84,9,5,22,0.08
2013-5-11,77.1,70.5,63.9,60.2,56.3,51.2,78,61,48,29.89,29.76,10,4,19,0.00
2013-5-12,80.3,73.3,68.5,58.9,56.1,50.4,69,56,37,29.77,29.66,13,5,24,0.00
2013-5-13,74.6,68.6,64.3,59.7,53.1,48.7,79,58,40,29.70,29.64,11,5,22,0.15
2013-5-14,74.4,66.5,60.9,55.2,52.9,50.4,80,63,46,29.86,29.68,11,6,23,0.25
2013-5-15,78.1,69.7,60.7,59.2,53.2,50.2,72,57,41,29.89,29.84,9,4,17,0.00
2013-5-16,77.5,69.9,64.5,59.3,55.8,51.5,75,62,45,29.92,29.85,7,3,17,0.00
2013-5-17,79.4,72.0,66.3,62.3,58.3,55.1,76,63,45,29.95,29.83,7,2,13,0.02
2013-5-18,88.8,76.3,67.1,63.0,59.4,57.5,75,57,37,30.00,29.91,7,2,14,0.00
2013-5-19,90.8,79.7,71.6,61.5,58.3,54.0,63,49,30,29.98,29.90,8,2,15,0.00
2013-5-20,89.8,80.7,72.9,63.9,60.6,56.7,64,51,35,29.93,29.87,6,2,14,0.00
2013-5-21,89.2,80.2,73.2,62.5,56.5,48.9,59,45,27,29.93,29.86,7,3,14,0.00
2013-5-22,84.2,77.5,72.7,62.3,56.8,50.3,65,50,31,29.90,29.74,10,3,18,0.00
2013-5-23,85.3,77.7,70.0,62.8,54.7,47.3,67,46,31,29.73,29.58,14,8,25,0.00
2013-5-24,78.5,72.4,66.8,54.0,51.8,47.6,59,49,40,29.92,29.71,13,7,23,0.00
2013-5-25,80.8,73.2,66.6,57.9,51.1,46.4,56,46,31,29.95,29.89,13,6,25,0.00
2013-5-26,84.0,75.1,67.3,54.9,50.8,44.0,58,44,28,29.96,29.84,15,6,26,0.00
2013-5-27,80.0,72.1,66.0,55.0,45.0,32.8,60,39,20,29.97,29.89,13,5,23,0.00
2013-5-28,77.0,71.2,64.8,60.7,53.6,46.9,71,55,36,29.96,29.77,10,3,23,0.00
2013-5-29,87.9,77.9,72.8,62.7,53.5,40.3,66,44,29,29.77,29.57,9,5,21,0.00
2013-5-30,86.4,77.0,71.0,63.4,55.6,44.5,71,49,29,29.74,29.65,12,5,19,0.00
2013-5-31,81.0,74.6,69.3,61.3,49.7,42.1,66,43,28,29.79,29.66,15,8,26,0.00
2013-6-1,74.7,69.4,65.0,59.5,49.2,41.3,76,50,35,29.87,29.79,12,4,23,0.03
2013-6-2,77.3,70.5,63.2,58.9,51.8,45.2,75,53,35,29.84,29.68,17,7,29,0.08
2013-6-3,81.3,72.0,65.1,57.8,52.2,45.7,64,51,29,29.88,29.83,10,5,19,0.00
2013-6-4,82.5,74.3,68.3,59.8,54.8,47.2,65,52,30,29.89,29.82,12,5,22,0.00
2013-6-5,80.8,74.4,67.7,59.2,52.7,44.5,62,48,29,29.95,29.88,10,4,18,0.00
2013-6-6,82.9,75.0,68.9,63.2,56.9,51.9,72,55,37,30.02,29.94,9,4,17,0.00
2013-6-7,73.1,73.1,73.1,55.5,55.5,55.5,54,54,54,30.00,30.00,2,2,4,0.00
2013-6-8,86.0,75.9,70.2,63.4,58.5,54.3,71,56,37,29.86,29.80,10,4,21,0.05
2013-6-9,83.6,75.2,67.7,63.3,58.5,56.0,73,57,40,29.95,29.86,8,3,17,0.00
2013-6-10,84.3,77.4,69.8,61.3,58.8,56.7,67,53,41,29.95,29.82,9,3,17,0.00
2013-6-11,87.8,79.9,72.9,63.6,57.2,49.6,69,48,28,29.83,29.61,11,5,22,0.03
2013-6-12,84.5,74.4,65.7,62.2,55.3,50.3,79,53,34,29.78,29.65,11,5,24,0.32
2013-6-13,78.6,71.2,66.3,61.7,58.1,55.6,81,64,48,29.85,29.75,9,5,17,0.06
2013-6-14,81.5,73.9,68.4,63.1,59.0,56.8,78,60,48,29.92,29.83,10,5,19,0.04
2013-6-15,84.2,76.4,68.6,63.5,59.3,56.8,69,56,45,29.94,29.89,9,3,17,0.01
2013-6-16,91.1,79.6,70.6,67.4,61.5,56.1,68,55,37,29.96,29.91,8,3,15,0.00
2013-6-17,94.6,84.8,75.2,65.2,58.5,54.9,67,42,29,29.98,29.92,10,4,19,0.00
2013-6-18,93.2,86.4,79.3,60.5,57.2,52.9,49,38,26,29.97,29.91,16,7,36,0.00
2013-6-19,93.0,86.3,79.2,59.5,56.0,50.4,46,36,28,29.93,29.85,17,9,38,0.00
2013-6-20,95.1,87.4,81.8,59.0,55.1,51.6,44,34,27,29.95,29.84,14,8,34,0.00
2013-6-21,91.3,84.4,78.7,59.9,56.8,53.5,49,39,31,29.95,29.88,12,7,27,0.00
2013-6-22,96.3,86.3,76.6,55.5,51.0,43.3,48,31,18,29.93,29.83,12,5,28,0.00
2013-6-23,97.5,86.7,78.0,63.2,56.5,49.5,50,36,27,29.86,29.77,7,3,15,0.00
2013-6-24,95.3,85.9,79.1,66.0,58.9,52.4,51,41,24,29.80,29.75,10,4,17,0.00
2013-6-25,95.6,86.4,78.9,63.9,57.5,51.6,51,39,23,29.78,29.74,8,4,15,0.00
2013-6-26,94.5,85.4,77.9,67.7,59.2,53.9,55,42,32,29.87,29.77,9,4,15,0.00
2013-6-27,93.4,84.2,78.6,65.7,62.5,58.0,63,49,31,29.90,29.84,8,4,16,0.00
2013-6-28,89.7,81.5,75.7,67.2,62.5,59.2,66,53,38,29.91,29.86,8,4,17,0.00
2013-6-29,78.7,78.7,78.7,64.1,64.1,64.1,61,61,61,29.91,29.91,2,2,4,0.00
2013-7-1,89.9,79.1,72.3,62.8,54.3,46.8,62,44,25,30.00,29.87,10,5,19,0.00
2013-7-2,89.7,80.3,72.6,63.3,57.7,51.3,69,48,27,30.02,29.94,8,3,18,0.00
2013-7-3,89.5,81.3,73.4,62.8,53.8,48.8,61,39,30,29.97,29.87,9,4,17,0.00
2013-7-4,90.9,81.8,72.9,63.2,54.2,49.3,66,40,29,29.92,29.84,11,4,23,0.00
2013-7-5,89.4,82.2,75.8,60.2,53.9,48.0,44,38,30,29.91,29.85,11,6,22,0.00
2013-7-6,88.3,82.1,77.2,62.7,58.5,54.8,58,45,36,29.89,29.83,13,8,27,0.00
2013-7-7,91.9,84.3,78.0,62.3,59.6,55.9,55,44,33,29.95,29.84,13,8,27,0.00
2013-7-8,94.5,85.8,79.1,60.2,56.2,51.8,51,37,24,29.97,29.91,11,7,22,0.00
2013-7-9,94.9,86.9,81.1,61.5,57.1,52.1,46,37,27,29.97,29.82,10,7,21,0.00
2013-7-10,94.4,85.4,78.8,62.5,58.7,51.2,55,42,28,29.85,29.72,11,6,22,0.00
2013-7-11,94.9,85.0,78.6,65.1,58.0,51.8,53,41,27,29.83,29.75,9,5,18,0.00
2013-7-12,92.6,85.0,78.4,66.0,60.1,54.4,54,44,34,29.90,29.82,8,3,14,0.00
2013-7-13,84.0,84.0,84.0,54.2,54.2,54.2,36,36,36,29.90,29.90,2,2,5,0.00
2013-7-15,93.2,84.8,78.8,61.2,56.1,53.5,47,38,28,29.90,29.82,10,4,22,0.00
2013-7-16,91.4,84.0,78.1,62.5,55.8,51.8,55,39,29,29.92,29.85,10,4,25,0.00
2013-7-17,83.1,78.8,74.9,61.0,57.8,52.6,60,49,39,29.97,29.92,13,7,27,0.00
2013-7-18,88.0,81.2,75.8,59.2,54.7,49.0,54,41,27,30.01,29.95,15,9,30,0.00
2013-7-19,90.5,82.4,76.2,56.2,52.7,48.0,48,37,26,30.00,29.90,12,7,28,0.00
2013-7-20,91.9,83.4,76.2,56.9,52.8,47.3,45,36,24,29.91,29.80,11,6,22,0.00
2013-7-21,95.2,86.1,78.4,56.5,53.7,49.1,42,34,25,29.87,29.80,11,6,25,0.00
2013-7-22,88.5,81.5,76.7,63.6,58.9,55.2,61,47,35,29.89,29.83,13,7,26,0.00
2013-7-23,89.9,81.4,74.6,60.1,52.5,43.4,57,39,22,29.89,29.83,12,7,25,0.00
2013-7-24,96.7,86.3,77.3,51.2,47.7,43.7,35,27,18,29.90,29.85,12,6,25,0.00
2013-7-25,98.4,86.9,77.5,60.1,52.7,43.9,44,32,16,29.93,29.85,9,3,18,0.00
2013-7-26,100.3,88.7,78.7,59.7,53.5,49.1,43,31,20,29.89,29.80,8,3,17,0.00
2013-7-27,86.7,86.7,86.7,57.3,57.3,57.3,37,37,37,29.84,29.84,1,1,3,0.00
2013-7-29,97.5,88.9,80.9,57.2,53.8,49.9,44,31,21,30.00,29.90,13,6,26,0.00
2013-7-30,100.4,90.2,83.1,65.9,57.1,50.9,47,33,24,29.91,29.74,8,3,15,0.00
2013-7-31,99.1,90.4,83.8,66.4,61.1,55.6,45,38,30,29.79,29.70,12,6,24,0.00
2013-8-1,92.3,86.2,81.0,66.6,61.0,55.6,61,44,33,29.92,29.79,13,8,29,0.00
2013-8-2,91.1,85.1,79.7,61.8,57.1,51.1,53,39,29,29.95,29.91,13,7,26,0.00
2013-8-3,93.9,86.5,80.0,60.6,55.9,50.0,50,36,26,29.93,29.90,14,7,28,0.00
2013-8-11,92.6,85.7,80.1,69.0,54.8,45.5,69,37,21,29.83,29.66,13,7,27,0.00
2013-8-12,93.8,86.3,79.3,62.7,54.3,49.7,51,35,23,29.91,29.84,12,6,26,0.00
2013-8-13,96.5,87.8,80.6,56.7,52.9,46.3,40,31,23,29.91,29.83,12,7,27,0.00
2013-8-14,97.1,88.5,81.8,56.9,51.3,42.9,40,29,18,29.85,29.79,13,6,31,0.00
2013-8-15,84.3,84.3,84.3,51.2,51.2,51.2,32,32,32,29.82,29.82,5,5,11,0.00
2013-8-17,92.0,84.8,79.1,64.5,62.0,57.9,59,47,33,29.91,29.83,13,7,28,0.00
2013-8-18,94.6,85.9,79.0,60.7,54.5,49.7,50,35,25,29.96,29.89,12,7,25,0.00
2013-8-19,95.6,86.9,79.8,57.3,52.5,48.9,38,31,22,29.94,29.86,12,6,28,0.00
2013-8-20,96.0,87.0,81.2,56.2,52.6,45.5,41,32,19,29.88,29.81,14,7,32,0.00
2013-8-21,90.9,83.9,79.1,61.4,56.1,49.8,52,39,27,29.88,29.84,11,6,24,0.00
2013-8-22,90.7,82.6,76.9,61.2,58.2,54.2,55,44,32,29.86,29.81,10,5,22,0.00
2013-8-26,93.9,84.5,76.8,63.7,58.2,54.5,53,41,28,29.88,29.82,7,3,14,0.00
2013-8-27,95.5,85.8,77.7,66.6,60.9,54.9,58,44,26,29.88,29.81,7,3,13,0.00
2013-8-28,98.4,87.5,79.7,68.7,62.5,57.1,56,44,26,29.86,29.80,11,3,19,0.00
2013-8-29,96.9,87.0,81.7,67.6,62.3,55.2,56,45,26,29.89,29.82,8,4,15,0.00
2013-8-30,94.9,86.3,80.8,67.4,59.9,54.2,60,42,27,29.92,29.83,9,4,19,0.00
2013-8-31,90.4,82.0,77.3,68.6,57.9,52.4,67,45,31,29.98,29.89,11,6,24,0.00
2013-9-1,89.1,81.0,74.7,60.9,53.8,46.4,61,40,28,30.05,29.98,9,5,21,0.00
2013-9-8,89.2,79.5,72.2,59.3,55.5,47.3,62,45,32,30.11,30.00,12,4,25,0.00
2013-9-9,87.8,79.1,72.3,56.1,50.9,46.8,54,38,28,30.15,30.07,11,6,21,0.00
2013-9-10,87.1,78.7,71.9,63.8,55.3,46.5,61,45,32,30.09,30.00,7,3,13,0.00
2013-9-11,88.0,80.8,73.4,69.2,61.7,55.3,67,53,43,30.02,29.93,9,3,15,0.00
2013-9-12,91.8,82.9,75.6,68.4,64.0,59.0,68,54,38,29.95,29.90,7,3,13,0.00
2013-9-13,91.2,83.3,77.8,68.9,63.9,59.7,66,53,35,29.94,29.88,13,5,24,0.00
2013-9-14,89.2,80.4,74.4,61.2,54.8,41.5,58,43,20,30.01,29.92,10,6,20,0.00
2013-9-16,80.6,76.8,72.4,66.0,59.8,52.0,67,56,38,29.89,29.63,12,4,23,0.00
2013-9-18,86.0,79.5,73.9,63.2,58.1,51.3,67,50,32,29.67,29.60,15,8,28,0.00
2013-9-21,78.7,72.2,70.1,64.6,61.5,57.5,77,69,51,30.01,29.93,9,7,18,0.00
2013-9-22,77.9,72.6,68.9,58.0,53.7,51.0,61,52,41,30.07,30.02,12,6,25,0.00
2013-9-26,83.6,75.8,68.9,66.4,62.3,55.3,82,65,40,30.01,29.89,7,3,13,0.00
2013-9-27,87.0,78.0,70.3,65.1,58.4,52.0,69,53,33,29.90,29.85,7,3,20,0.00
2013-9-29,83.7,76.5,70.0,68.0,62.9,58.4,79,64,48,29.93,29.86,8,3,14,0.00
2013-9-30,83.4,76.8,70.5,69.0,64.4,59.6,79,66,52,29.88,29.63,9,3,18,0.00
2013-10-1,80.5,74.0,66.9,70.6,63.8,56.1,89,72,48,29.65,29.52,19,6,44,1.13
2013-10-2,77.8,71.4,65.0,60.4,56.4,53.9,70,60,45,29.88,29.61,13,5,28,0.00
2013-10-6,70.7,60.4,54.0,47.5,45.3,43.5,70,59,38,30.33,30.25,9,5,18,0.00
2013-10-7,72.5,62.8,56.1,49.5,47.1,44.2,71,57,39,30.34,30.28,10,6,22,0.00
2013-10-8,78.5,66.7,60.4,53.5,49.4,46.4,63,55,35,30.33,30.24,7,3,14,0.00
2013-10-9,76.6,68.0,60.9,57.3,51.7,46.7,69,57,36,30.27,30.15,6,3,11,0.00
2013-10-10,71.9,66.9,62.8,62.8,59.3,55.0,84,77,69,30.16,30.05,7,2,12,0.02
2013-10-11,82.7,70.8,62.8,66.6,59.3,57.4,83,69,43,30.15,30.09,6,2,10,0.00
2013-10-14,83.0,74.0,67.6,60.2,55.8,51.6,75,54,35,30.15,30.07,9,5,18,0.00
2013-10-15,78.2,71.7,65.9,65.3,60.0,52.4,82,67,54,30.14,29.97,6,2,13,0.00
2013-10-16,72.9,70.1,65.3,65.6,62.6,59.8,85,77,67,29.97,29.58,17,2,30,0.33
2013-10-17,72.5,67.2,60.9,64.4,51.3,39.7,81,58,34,29.75,29.50,15,6,28,0.23
2013-10-18,76.5,68.5,63.1,55.4,49.0,45.0,65,50,35,30.02,29.75,10,5,18,0.00
2013-10-19,78.0,69.5,64.4,53.6,44.3,39.7,65,41,27,30.34,30.03,8,4,17,0.00
2013-10-20,75.7,66.2,59.9,51.9,47.7,43.2,70,53,34,30.41,30.33,8,5,17,0.00
2013-10-21,74.3,65.6,57.1,56.6,47.6,41.0,72,53,34,30.34,30.20,7,3,14,0.00
2013-10-22,76.0,66.5,58.4,57.6,53.3,51.1,79,64,46,30.21,30.12,6,2,11,0.00
2013-10-23,79.9,69.9,60.5,54.8,51.2,45.1,70,53,39,30.21,30.14,12,4,25,0.00
2013-10-24,78.6,70.2,64.9,54.5,50.8,44.9,68,51,37,30.21,30.15,9,5,21,0.00
2013-10-25,71.6,63.3,59.6,50.4,46.9,44.9,61,55,46,30.18,30.14,6,1,12,0.00
2013-10-27,78.1,66.4,56.8,56.1,42.8,32.8,69,44,24,30.17,30.08,5,2,11,0.00
2013-10-28,76.4,66.7,57.1,59.6,50.6,46.0,74,58,35,30.11,30.05,5,2,9,0.00
2013-10-30,76.6,68.0,60.3,60.2,54.3,50.2,73,62,41,30.07,30.01,5,2,10,0.00
2013-11-2,72.5,64.5,57.9,54.7,51.6,48.9,75,64,47,30.17,30.08,4,2,9,0.00
2013-11-3,67.8,60.5,57.9,57.4,53.6,52.1,82,78,69,30.11,30.08,3,2,7,0.00
2013-11-5,73.6,68.7,63.8,63.3,60.0,53.5,85,75,52,29.94,29.76,12,5,25,0.00
2013-11-7,71.0,64.8,60.0,58.7,51.6,39.3,85,64,42,30.12,29.68,16,6,28,0.00
2013-11-8,74.1,65.4,58.7,52.4,45.7,39.1,64,49,38,30.17,30.10,6,4,11,0.00
2013-11-9,73.9,65.3,58.7,56.6,51.5,47.2,74,61,49,30.12,30.03,6,3,9,0.00
2013-11-11,71.7,66.1,62.1,64.2,61.1,58.5,92,84,74,29.99,29.83,11,4,27,3.98
2013-11-14,64.9,60.9,58.4,56.6,54.8,51.2,92,80,69,29.99,29.88,15,7,27,1.43
2013-11-15,64.9,60.4,57.6,54.2,51.9,50.6,81,74,63,30.14,29.92,11,7,21,0.06
2013-11-16,63.5,59.5,57.5,52.5,50.6,47.3,80,73,63,30.20,30.13,14,7,26,0.00
2013-11-17,63.3,58.6,55.3,47.8,44.3,42.1,71,59,46,30.20,30.12,10,5,21,0.00
2013-11-18,63.7,57.5,53.7,47.6,45.8,44.2,73,65,51,30.17,30.12,7,2,15,0.00
2013-11-19,65.8,59.4,53.7,53.0,48.2,45.5,75,67,52,30.17,30.04,6,2,12,0.00
2013-11-20,69.9,64.6,60.3,63.4,59.0,52.7,90,82,75,30.04,29.88,8,3,16,0.42
2013-11-21,70.1,63.9,57.9,60.6,55.8,52.6,90,75,58,29.90,29.77,9,4,18,1.92
2013-11-22,67.1,59.7,56.4,55.8,53.8,49.3,91,82,54,29.79,29.72,9,2,16,0.11
2013-11-26,65.5,59.2,54.5,54.6,50.6,47.9,83,74,54,29.75,29.71,5,2,11,0.06
2013-11-29,59.0,49.3,45.1,44.2,37.3,34.8,69,63,55,30.26,30.17,4,2,8,0.00
2013-11-30,56.3,54.3,51.1,50.0,46.7,42.4,84,76,66,30.17,30.07,9,6,17,0.15
2013-12-1,65.0,60.3,54.2,58.5,54.2,49.0,87,80,73,30.09,29.96,10,6,28,0.23
2013-12-4,50.3,46.7,43.3,40.2,37.7,34.7,83,71,59,30.19,30.09,15,9,29,0.26
2013-12-5,60.1,50.4,42.1,37.9,34.6,30.7,77,57,34,30.12,30.06,8,3,16,0.00
2013-12-7,58.8,52.2,48.8,48.7,39.7,28.1,83,64,43,30.25,29.88,11,5,23,0.00
2013-12-8,53.8,48.3,45.0,30.5,27.4,22.7,53,45,31,30.39,30.26,9,5,19,0.00
2013-12-16,57.1,53.8,52.0,48.5,45.5,41.5,84,74,58,30.40,30.33,11,6,19,0.00
2013-12-19,55.2,49.7,46.3,40.2,38.7,36.7,76,66,52,30.32,30.26,8,4,19,0.00
2013-12-21,60.0,50.4,43.3,44.0,39.4,35.6,79,67,54,30.56,30.49,5,2,8,0.00
2013-12-22,62.2,50.5,42.6,39.3,35.7,32.0,69,58,38,30.55,30.43,5,2,11,0.00
2013-12-23,59.0,51.7,45.9,44.2,40.2,37.5,79,66,49,30.43,30.33,7,4,13,0.00
2013-12-28,59.7,55.7,53.5,51.4,50.5,49.2,90,83,71,29.94,29.83,12,7,27,0.12
2014-1-1,51.8,49.5,48.1,46.3,43.1,39.4,89,79,69,30.21,30.12,8,3,14,0.51
2014-1-2,57.3,52.1,50.4,46.8,45.6,44.8,87,79,65,30.15,30.10,6,2,13,0.08